Location: Arrodets-la-Barthe
(43.0306°N, 0.2829°E)
Time: 02:17:22
(UTC+00:00)

DUCHIFAT 1 - Pass Details

Date: 07 April 2023
Orbit: 567 x 581 km, 98.1° (Epoch: 29 May)

Event Time Altitude Azimuth Distance (km) Brightness Sun altitude
Rises 03:28:36 0° 10° (N) 2,785 ? -21.6°
Reaches altitude 10° 03:30:46 10° 8° (N) 1,880 ? -21.3°
Maximum altitude 03:34:48 68° 286° (WNW) 617 ? -20.7°
Enters shadow 03:35:15 61° 244° (WSW) 647 ? -20.6°
